Weather History for KSHV - December, 2013

Change the Weather History Date:

Sunday, December 1, 2013

  Actual Average Record
Temperature  
Mean Temperature 60 °F 51 °F  
Max Temperature 67 °F 62 °F 80 °F (1950)
Min Temperature 53 °F 41 °F 22 °F (1877)
Degree Days  
Heating Degree Days 5 14  
Month to date heating degree days 5 14  
Since 1 July heating degree days 416 385  
Cooling Degree Days 0 0  
Month to date cooling degree days 0 0  
Year to date cooling degree days 2706 2474  
Growing Degree Days 10 (Base 50)    
Moisture  
Dew Point 50 °F    
Average Humidity 74    
Maximum Humidity 86    
Minimum Humidity 62    
Precipitation  
Precipitation 0.00 in 0.16 in 1.77 in (1991)
Month to date precipitation 0.00 0.16  
Year to date precipitation 48.47 46.80  
Snow  
Snow 0.00 in - - ()
Month to date snowfall 0.0  
Since 1 July snowfall 0.0  
Snow Depth 0.00 in    
Sea Level Pressure  
Sea Level Pressure 30.07 in    
Wind  
Wind Speed 7 mph (SSW)    
Max Wind Speed 16 mph    
Max Gust Speed 22 mph    
Visibility 10 miles    
Events      
T = Trace of Precipitation, MM = Missing Value Source: NWS Daily Summary

Daily Weather History Graph

Daily Weather History Graph

Search for Another Location

Airport or City:

Trip Planner

Search our weather history database for the weather conditions in past years. The results will help you decide how hot, cold, wet, or windy it might be!

Date:

Astronomy

Dec. 01, 2013 Rise Set
Actual Time 6:59 AM CST 5:09 PM CST
Civil Twilight 6:32 AM CST 5:36 PM CST
Nautical Twilight 6:02 AM CST 6:06 PM CST
Astronomical Twilight 5:32 AM CST 6:36 PM CST
Moon 5:22 AM CST (12/1) 4:16 PM CST (12/1)
Length of Visible Light 11h 04m
Length of Day
10h 10m
Waning Crescent, 2% of the Moon is Illuminated
Dec 1
Waning Crescent
Dec 2
New
Dec 9
First Quarter
Dec 17
Full
Dec 25
Last Quarter

Hourly Weather History & Observations

Time (CST) Temp. Dew Point Humidity Pressure Visibility Wind Dir Wind Speed Gust Speed Precip Events Conditions
12:56 AM 55.0 °F 45.0 °F 69% 30.20 in 10.0 mi South 6.9 mph - N/A   Overcast
1:56 AM 55.9 °F 44.1 °F 64% 30.19 in 10.0 mi SSW 10.4 mph - N/A   Overcast
2:56 AM 55.0 °F 44.1 °F 67% 30.19 in 10.0 mi South 6.9 mph - N/A   Overcast
3:56 AM 55.0 °F 44.1 °F 67% 30.18 in 10.0 mi SSW 6.9 mph - N/A   Overcast
4:56 AM 54.0 °F 45.0 °F 72% 30.20 in 10.0 mi SW 8.1 mph - N/A   Overcast
5:56 AM 53.1 °F 45.0 °F 74% 30.19 in 10.0 mi SSW 5.8 mph - N/A   Overcast
6:56 AM 54.0 °F 45.0 °F 72% 30.18 in 10.0 mi SSW 9.2 mph - N/A   Overcast
7:56 AM 55.0 °F 45.0 °F 69% 30.17 in 10.0 mi SSW 9.2 mph - N/A   Overcast
8:56 AM 57.0 °F 45.0 °F 64% 30.17 in 10.0 mi SSW 5.8 mph - N/A   Overcast
9:56 AM 61.0 °F 48.0 °F 62% 30.16 in 10.0 mi SSW 9.2 mph - N/A   Overcast
10:56 AM 63.0 °F 51.1 °F 65% 30.15 in 10.0 mi SSW 9.2 mph - N/A   Overcast
11:56 AM 64.0 °F 52.0 °F 65% 30.12 in 10.0 mi SSW 8.1 mph - N/A   Overcast
12:56 PM 66.0 °F 53.1 °F 63% 30.07 in 10.0 mi SW 10.4 mph 19.6 mph N/A   Overcast
1:56 PM 66.0 °F 53.1 °F 63% 30.04 in 10.0 mi SW 5.8 mph - N/A   Overcast
2:56 PM 66.0 °F 54.0 °F 65% 30.02 in 10.0 mi SSW 6.9 mph - N/A   Overcast
3:56 PM 64.0 °F 54.0 °F 70% 30.01 in 10.0 mi SSW 6.9 mph - N/A   Overcast
4:56 PM 63.0 °F 53.1 °F 70% 30.00 in 10.0 mi South 9.2 mph - N/A   Overcast
5:56 PM 60.1 °F 53.1 °F 78% 29.99 in 10.0 mi Calm Calm - N/A   Overcast
6:56 PM 57.9 °F 53.1 °F 84% 29.98 in 10.0 mi SSE 4.6 mph - N/A   Overcast
7:56 PM 59.0 °F 53.1 °F 81% 29.96 in 10.0 mi South 8.1 mph - N/A   Overcast
8:56 PM 60.1 °F 54.0 °F 80% 29.97 in 10.0 mi South 4.6 mph - N/A   Overcast
9:18 PM 60.8 °F 53.6 °F 77% 29.97 in 10.0 mi South 4.6 mph - N/A   Overcast
9:56 PM 60.1 °F 54.0 °F 80% 29.96 in 10.0 mi South 5.8 mph - N/A   Overcast
10:06 PM 60.8 °F 53.6 °F 77% 29.96 in 10.0 mi South 6.9 mph - N/A   Overcast
10:56 PM 59.0 °F 54.0 °F 83% 29.94 in 10.0 mi South 6.9 mph - N/A   Mostly Cloudy
11:56 PM 57.9 °F 54.0 °F 87% 29.92 in 10.0 mi South 6.9 mph - N/A   Mostly Cloudy